Location: Biharia
(46.4333°N, 22.8000°E)
Time: 01:04:35
(UTC+00:00)

Cosmos 1908 - Pass Details

Date: 16 October 2021
Orbit: 509 x 528 km, 82.5° (Epoch: 02 December)

Event Time Altitude Azimuth Distance (km) Brightness Sun altitude
Rises 16:05:09 0° 155° (SSE) 2,655 6.6 -5.0°
Reaches altitude 10° 16:07:38 10° 139° (SE) 1,770 5.6 -5.5°
Maximum altitude 16:10:39 22° 88° (E) 1,197 4.4 -6.0°
Drops below altitude 10° 16:13:39 10° 38° (NE) 1,776 5.5 -6.5°
Sets 16:16:09 0° 23° (NNE) 2,667 6.5 -6.9°
